François Lagadeuc

François Lagadeuc

Statistiques 2026

  • Courses courues : 319
  • Nb de victoires : 46
  • Nb de places : 87
  • Écart gagnant : 13
  • Réussite à la gagne : 14%
  • Réussite à la place : 27%
Musique : 5m 4a 0m 0a 0a Da Da Da 5a 2a 3a 2a 8a 1a 8a 1a 5m Da
DateRangCatégorieAlloc.Dist.HippodromeChevalRed. KmSpé.
16/07/16 2 Trot 13 000€ 2 725m Graignes Daisy Turgot 1'18"5 Attelé
22/07/16 2 Trot 20 000€ 2 850m Cabourg Diva de Jordan 1'18"0 Monté lire

Une des animatrices, a beaucoup penché sur sa gauche dans la ligne droite, devant se contenter de la deuxième place.

24/07/16 2 Trot 24 000€ 2 700m Graignes Bardane 1'16"9 Attelé
24/07/16 2 Trot 35 000€ 2 725m Graignes Thesee de Corbery 1'15"4 Attelé
07/08/16 2 Trot 22 000€ 2 425m Sainte Marie Du Monts Albania Attelé
11/08/16 2 Trot 12 000€ 2 850m Carentan Dubai d'Essarts Attelé
13/08/16 2 Trot 13 000€ 2 700m Graignes Diane de Corbery 1'18"1 Attelé
13/08/16 2 Trot 26 000€ 2 700m Graignes Arpege de Camaran 1'15"4 Attelé
15/08/16 2 Trot 13 000€ 2 475m Francheville Dirty Dancing Attelé
15/08/16 2 Trot 14 000€ 2 500m Francheville Check Point Charly Monté
22/08/16 2 Trot 120 000€ 2 175m Vincennes Best Of Jets 1'12"5 Monté lire

Principal animateur, a longtemps fait figure de lauréat, avant de s'incliner dans les cent derniers mètres.

28/08/16 2 Trot 30 000€ 2 800m Bernay Artic Sun 1'20"6 Attelé
05/09/16 2 Trot 21 000€ 2 450m Caen Candido Ges 1'16"0 Monté
05/09/16 2 Trot 20 000€ 2 450m Caen Delta Seven 1'16"5 Monté
17/09/16 2 Trot 20 000€ 2 225m Mauquenchy Daisy Turgot 1'18"2 Attelé
12/10/16 2 Trot 35 000€ 2 150m Enghien Soisy Epatante Star 1'18"4 Attelé lire

Principale animatrice, a longtemps fait figure de lauréate avant de s'incliner dans les dernières battues.

14/10/16 2 Trot 21 000€ 2 675m Le Mont Saint Michel Celeste Etoile 1'17"8 Attelé
16/10/16 2 Trot 13 000€ 2 725m Machecoul Dorado Bello 1'20"5 Attelé
23/10/16 2 Trot 14 000€ 2 725m Graignes Check Point Charly 1'16"3 Monté
27/10/16 2 Trot 22 000€ 2 850m Cabourg Dubai d'Essarts 1'17"7 Attelé
27/11/16 2 Trot 20 000€ 2 575m Reims Boavista 1'15"5 Attelé
10/12/19 2 Trot 50 000€ 2 700m Vincennes Eire d'helios 1'14"4 Attelé lire

Après avoir évolué en queue de peloton,a très bien conclu pour arracher la deuxième place.

22/12/19 2 Trot 49 000€ 2 100m Vincennes Cesar Express 1'13"3 Attelé lire

Après avoir figuré en retrait, a bien conclu mais sans pouvoir remonter le lauréat.

26/12/19 2 Trot 33 000€ 2 850m Vincennes Eclair de Duffel 1'13"3 Monté lire

Principal animateur, n'a pu résister au lauréat pour finir.

29/12/19 2 Trot 49 000€ 2 100m Vincennes Cesar Express 1'12"6 Attelé lire

Longtemps dans la dernière partie du peloton, a terminé de belle manière.

07/01/20 2 Trot 37 000€ 2 700m Vincennes Emone Cruz 1'14"8 Attelé lire

Longtemps au sein du peloton, a bien conclu sans pouvoir remonter la lauréate.

10/01/20 2 Trot 36 000€ 2 700m Vincennes Hispanien 1'17"6 Monté lire

Après avoir figuré, a progressé dans le tournant final avant de bien terminer.

18/01/20 2 Trot 43 000€ 2 700m Vincennes Enzo d'Essarts 1'13"7 Attelé lire

Attentiste à mi peloton, a progressé en montant puis a bien conclu.

23/01/20 2 Trot 18 000€ 2 100m Vincennes Ara d'Ostal 1'15"4 Attelé lire

Après avoir figuré, a vainement attaqué le lauréat dans la phase finale.

28/01/20 2 Trot 43 000€ 2 850m Vincennes Emone Cruz 1'14"1 Attelé lire

Longtemps en retrait, a progressé dans la montée, se défendant très bien jusqu'au bout.

01/02/20 2 Trot 18 000€ 2 850m Mauquenchy Flash de Bucy 1'17"1 Attelé
01/02/20 2 Trot 15 000€ 2 850m Mauquenchy Heagle Cash 1'19"1 Attelé
13/02/20 2 Trot 67 000€ 2 700m Vincennes Dostoievski 1'13"5 Attelé lire

Très vite à la pointe du combat, a fort bien tenu sa partie jusqu'au bout.

14/02/20 2 Trot 19 000€ 2 700m Graignes Ecu d'And Attelé
05/03/20 2 Trot 23 000€ 2 875m Laval Elixir Wind 1'16"2 Attelé
08/03/20 2 Trot 15 000€ 2 700m Graignes Gazelle Danica 1'15"1 Attelé
08/03/20 2 Trot 15 000€ 2 700m Graignes Gloria de Centule 1'17"6 Monté
08/03/20 2 Trot 15 000€ 2 700m Graignes Horace d'Arthenay 1'19"8 Attelé
12/05/20 2 Trot 16 000€ 2 550m Cherbourg Favela Somolli 1'16"5 Attelé
24/05/20 2 Trot 16 000€ 2 700m Le Mont Saint Michel Force Vive 1'14"6 Monté
25/05/20 2 Trot 16 000€ 2 150m Mauquenchy Gazelle Danica 1'14"5 Attelé
25/05/20 2 Trot 18 000€ 2 150m Mauquenchy Fadette d'Aurcy 1'13"4 Attelé
28/05/20 2 Trot 13 000€ 2 700m Graignes Genie du Pin 1'16"7 Attelé
02/06/20 2 Trot 37 000€ 2 875m Laval Hydre 1'17"1 Monté
07/06/20 2 Trot 14 000€ 2 875m Argentan Gold du Choquel 1'16"8 Monté
08/06/20 2 Trot 23 000€ 2 200m Caen Emone Cruz 1'13"0 Attelé
13/06/20 2 Trot 12 000€ 2 700m Graignes Gaetane du Vivier 1'16"3 Attelé
17/06/20 2 Trot 23 000€ 2 850m Maure De Bretagne Carat du Bocage 1'15"8 Attelé
19/06/20 2 Trot 37 000€ 2 150m Mauquenchy Emone Cruz 1'14"1 Attelé
21/06/20 2 Trot 12 000€ 2 975m Le Mans Hippo de Beaum 1'18"1 Attelé